COSMOS 2251 DEB, 33932

Orbit data source: Space-Track

COSMOS 2251 DEB, 33932 is space debris in LEO originally from a launch on Wed, 16 Jun 1993 UTC launched from the Plesetsk Missile And Space Complex (PKMTR). The debris from Iridium 33, an American commercial communications satellite, has been tracked extensively since its accidental collision with the defunct Russian satellite Cosmos 2251 in 2009. This event, occurring at high speed in low Earth orbit (LEO), generated thousands of pieces of space debris, significantly increasing the risk of further collisions. The Iridium 33 debris cloud has impacted space traffic management and orbital debris mitigation strategies, making it a subject of ongoing study in space situational awareness.

Loading next visibility...
Identifier
33932, 1993-036EM
Orbit
LEO
Country
Flag of CISCIS
Related business
Manufacturer
Unknown
Mission
Spacecraft
Bus & Motor
Unknown
Mass
Unknown
Launch date (UTC)
1993-06-16 (33 years ago)
Launch vehicle
Unknown
Launch site
Plesetsk Missile And Space Complex (PKMTR)
Object type
Payload
Rocket body
Debris
Shape & HBR
Unknown shape, 0.2 m
Radar Cross Section
Small (<0.1 m²)

Expand to show TLE details & history
Last TLE update: 14 hours ago

TLE from 14 hours ago
0 COSMOS 2251 DEB
1 33932U 93036EM  26037.57961296  .00001696  00000-0  55429-3 0  9994
2 33932  74.0315 212.9134 0037058 278.1533  81.5418 14.38947097888010
Epoch: 2026-02-06T13:54Z
TLE epoch observation values (Epoch: 2026-02-06T13:54:38.559Z)
Latitude
-0.00008°
Longitude
-132.46274°
Altitude
760.797 km
Speed
7.476 km/s
True Right ascension
14h 11m 39s
True Declination
0° 00' 00"
Sunlit
Object was in daylight at epoch
Visualization orbit readout
Latitude
Unknown
Longitude
Unknown
Altitude
Unknown
Speed
Unknown
Apparent Right ascension
Unknown
Apparent Declination
Unknown
Sunlit
N/A
Visualization observer readout
Local Sidereal Time
05:57:35
Azimuth
Unknown
Elevation
Unknown
Doppler factor
Unknown
Orbital elements
Apogee altitude
786.051 km
Perigee altitude
733.149 km
Semi-major axis
7,137.737 km
Eccentricity
0.00371
Inclination
74.0315°
RAAN
212.9134°
Arg. of periapsis
278.1533°
True anomaly
81.96212°
Mean anomaly
81.5418°
Eccentric anomaly
81.75193°
Mean motion
3.59917 °/min
Orbital period
100.02 mins
BSTAR
0.00055429
Loading maneuver chart data...
Computing Atmospheric mass density...

Documentation

Showing up to 5 results
|